Weather History for Louisa, VA

Change the Weather History Date:

Thursday, January 3, 2013

  Actual Average (KCHO) Record (KCHO)
Temperature  
Mean Temperature 34 °F 35 °F  
Max Temperature 41 °F 44 °F 72 °F (2004)
Min Temperature 28 °F 26 °F 6 °F (1918)
Degree Days  
Heating Degree Days 30 30  
Month to date heating degree days 90  
Since 1 July heating degree days 1826  
Cooling Degree Days 0 0  
Month to date cooling degree days 0  
Year to date cooling degree days 0  
Moisture  
Dew Point 19 °F    
Average Humidity 57    
Maximum Humidity 86    
Minimum Humidity 41    
Precipitation  
Precipitation 0.00 in 0.09 in 0.25 in (2003)
Month to date precipitation 0.27  
Year to date precipitation 0.27  
Sea Level Pressure  
Sea Level Pressure 30.18 in    
Wind  
Wind Speed 2 mph (SSW)    
Max Wind Speed 7 mph    
Max Gust Speed -    
Visibility 10 miles    
Events      
T = Trace of Precipitation, MM = Missing Value Source: NWS Daily Summary

Daily Weather History Graph

Daily Weather History Graph

Search for Another Location

Airport:

Trip Planner

Search our weather history database for the weather conditions in past years. The results will help you decide how hot, cold, wet, or windy it might be!

Date:

Astronomy

Jan. 03, 2013 Rise Set
Actual Time 7:28 AM EST 5:05 PM EST
Civil Twilight 6:58 AM EST 5:34 PM EST
Nautical Twilight 6:26 AM EST 6:07 PM EST
Astronomical Twilight 5:54 AM EST 6:39 PM EST
Moon 11:31 PM EST (1/3) 10:45 AM EST (1/3)
Length of Visible Light 10h 35m
Length of Day
9h 36m
Waning Gibbous, 65% of the Moon is Illuminated
Jan 3
Waning Gibbous
Jan 4
Last Quarter
Jan 11
New
Jan 18
First Quarter
Jan 26
Full

Hourly Weather History & Observations

Time (EST) Temp. Windchill Dew Point Humidity Pressure Visibility Wind Dir Wind Speed Gust Speed Precip Events Conditions
12:15 AM 33.8 °F - 15.8 °F 48% 30.19 in 10.0 mi Calm Calm - N/A   Overcast
12:35 AM 33.8 °F 30.8 °F 15.8 °F 48% 30.19 in 10.0 mi NNE 3.5 mph - N/A   Overcast
12:55 AM 33.8 °F - 17.6 °F 52% 30.18 in 10.0 mi Calm Calm - N/A   Overcast
1:15 AM 33.8 °F 30.8 °F 15.8 °F 48% 30.19 in 10.0 mi NE 3.5 mph - N/A   Overcast
1:35 AM 33.8 °F - 15.8 °F 48% 30.18 in 10.0 mi Calm Calm - N/A   Overcast
1:55 AM 33.8 °F 30.8 °F 15.8 °F 48% 30.20 in 10.0 mi NNE 3.5 mph - N/A   Overcast
2:15 AM 33.8 °F - 15.8 °F 48% 30.20 in 10.0 mi Calm Calm - N/A   Overcast
2:35 AM 33.8 °F - 15.8 °F 48% 30.20 in 10.0 mi Calm Calm - N/A   Overcast
2:55 AM 32.0 °F 28.7 °F 17.6 °F 55% 30.20 in 10.0 mi ENE 3.5 mph - N/A   Overcast
3:15 AM 32.0 °F 28.7 °F 17.6 °F 55% 30.20 in 10.0 mi NNE 3.5 mph - N/A   Overcast
3:35 AM 32.0 °F - 17.6 °F 55% 30.20 in 10.0 mi Calm Calm - N/A   Overcast
3:55 AM 32.0 °F - 17.6 °F 55% 30.18 in 10.0 mi Calm Calm - N/A   Overcast
4:15 AM 32.0 °F - 17.6 °F 55% 30.19 in 10.0 mi Calm Calm - N/A   Overcast
4:35 AM 32.0 °F 28.7 °F 17.6 °F 55% 30.19 in 10.0 mi ENE 3.5 mph - N/A   Overcast
4:55 AM 32.0 °F - 17.6 °F 55% 30.18 in 10.0 mi Calm Calm - N/A   Overcast
5:15 AM 32.0 °F - 15.8 °F 51% 30.19 in 10.0 mi Calm Calm - N/A   Overcast
5:35 AM 32.0 °F 28.7 °F 15.8 °F 51% 30.19 in 10.0 mi NNE 3.5 mph - N/A   Overcast
5:55 AM 32.0 °F - 17.6 °F 55% 30.19 in 10.0 mi Calm Calm - N/A   Overcast
6:15 AM 30.2 °F - 17.6 °F 60% 30.19 in 10.0 mi Calm Calm - N/A   Overcast
6:35 AM 30.2 °F - 17.6 °F 60% 30.21 in 10.0 mi Calm Calm - N/A   Overcast
6:55 AM 30.2 °F - 17.6 °F 60% 30.21 in 10.0 mi Calm Calm - N/A   Overcast
7:15 AM 32.0 °F - 15.8 °F 51% 30.22 in 10.0 mi Calm Calm - N/A   Overcast
7:35 AM 30.2 °F - 17.6 °F 60% 30.22 in 10.0 mi Calm Calm - N/A   Overcast
7:55 AM 30.2 °F - 19.4 °F 64% 30.23 in 10.0 mi Calm Calm - N/A   Overcast
8:15 AM 30.2 °F - 19.4 °F 64% 30.23 in 10.0 mi Calm Calm - N/A   Overcast
8:35 AM 32.0 °F - 17.6 °F 55% 30.23 in 10.0 mi Calm Calm - N/A   Overcast
8:55 AM 32.0 °F - 17.6 °F 55% 30.22 in 10.0 mi Calm Calm - N/A   Overcast
9:15 AM 33.8 °F - 17.6 °F 52% 30.22 in 10.0 mi Calm Calm - N/A   Overcast
9:35 AM 33.8 °F - 15.8 °F 48% 30.22 in 10.0 mi Calm Calm - N/A   Overcast
9:55 AM 33.8 °F 30.8 °F 15.8 °F 48% 30.22 in 10.0 mi SE 3.5 mph - N/A   Mostly Cloudy
10:15 AM 33.8 °F 30.8 °F 15.8 °F 48% 30.22 in 10.0 mi SSE 3.5 mph - N/A   Scattered Clouds
10:35 AM 35.6 °F 32.8 °F 15.8 °F 44% 30.23 in 10.0 mi SSW 3.5 mph - N/A   Clear
10:55 AM 35.6 °F - 15.8 °F 44% 30.22 in 10.0 mi Calm Calm - N/A   Clear
11:15 AM 35.6 °F 29.9 °F 15.8 °F 44% 30.21 in 10.0 mi SSW 6.9 mph - N/A   Scattered Clouds
11:35 AM 37.4 °F - 15.8 °F 41% 30.20 in 10.0 mi Calm Calm - N/A   Clear
11:55 AM 37.4 °F 34.9 °F 17.6 °F 45% 30.19 in 10.0 mi South 3.5 mph - N/A   Clear
12:15 PM 37.4 °F 33.8 °F 15.8 °F 41% 30.18 in 10.0 mi WSW 4.6 mph - N/A   Clear
12:35 PM 37.4 °F - 17.6 °F 45% 30.17 in 10.0 mi Calm Calm - N/A   Clear
12:55 PM 37.4 °F 33.8 °F 17.6 °F 45% 30.16 in 10.0 mi SW 4.6 mph - N/A   Clear
1:15 PM 39.2 °F 35.9 °F 17.6 °F 42% 30.15 in 10.0 mi SSW 4.6 mph - N/A   Clear
1:35 PM 39.2 °F 35.0 °F 17.6 °F 42% 30.14 in 10.0 mi South 5.8 mph - N/A   Clear
1:55 PM 39.2 °F 37.0 °F 19.4 °F 45% 30.14 in 10.0 mi West 3.5 mph - N/A   Clear
2:15 PM 39.2 °F 35.9 °F 19.4 °F 45% 30.14 in 10.0 mi South 4.6 mph - N/A   Clear
2:35 PM 39.2 °F 35.9 °F 19.4 °F 45% 30.13 in 10.0 mi WSW 4.6 mph - N/A   Clear
2:55 PM 41.0 °F 37.1 °F 19.4 °F 42% 30.14 in 10.0 mi SW 5.8 mph - N/A   Clear
3:15 PM 39.2 °F 35.9 °F 19.4 °F 45% 30.14 in 10.0 mi SW 4.6 mph - N/A   Clear
3:35 PM 39.2 °F 35.0 °F 19.4 °F 45% 30.15 in 10.0 mi SW 5.8 mph - N/A   Clear
3:55 PM 39.2 °F 35.9 °F 19.4 °F 45% 30.15 in 10.0 mi SSW 4.6 mph - N/A   Clear
4:15 PM 39.2 °F - 19.4 °F 45% 30.16 in 10.0 mi Calm Calm - N/A   Clear
4:35 PM 37.4 °F - 19.4 °F 48% 30.16 in 10.0 mi Calm Calm - N/A   Clear
4:55 PM 35.6 °F - 21.2 °F 56% 30.16 in 10.0 mi Calm Calm - N/A   Clear
5:15 PM 32.0 °F - 21.2 °F 64% 30.17 in 10.0 mi Calm Calm - N/A   Clear
5:35 PM 30.2 °F 26.7 °F 21.2 °F 69% 30.17 in 10.0 mi South 3.5 mph - N/A   Clear
5:55 PM 32.0 °F - 21.2 °F 64% 30.17 in 10.0 mi Calm Calm - N/A   Clear
6:15 PM 30.2 °F - 21.2 °F 69% 30.17 in 10.0 mi Calm Calm - N/A   Clear
6:35 PM 30.2 °F - 21.2 °F 69% 30.17 in 10.0 mi Calm Calm - N/A   Clear
6:55 PM 30.2 °F - 21.2 °F 69% 30.18 in 10.0 mi Calm Calm - N/A   Clear
7:15 PM 30.2 °F - 21.2 °F 69% 30.18 in 10.0 mi Calm Calm - N/A   Clear
7:35 PM 30.2 °F - 21.2 °F 69% 30.18 in 10.0 mi Calm Calm - N/A   Clear
7:55 PM 30.2 °F 26.7 °F 21.2 °F 69% 30.18 in 10.0 mi South 3.5 mph - N/A   Clear
8:15 PM 32.0 °F - 24.8 °F 75% 30.18 in 10.0 mi Calm Calm - N/A   Clear
8:35 PM 32.0 °F - 24.8 °F 75% 30.17 in 10.0 mi Calm Calm - N/A   Clear
8:55 PM 30.2 °F 26.7 °F 24.8 °F 80% 30.18 in 10.0 mi SSW 3.5 mph - N/A   Clear
9:15 PM 30.2 °F 26.7 °F 24.8 °F 80% 30.17 in 10.0 mi SSW 3.5 mph - N/A   Clear
9:35 PM 30.2 °F 26.7 °F 24.8 °F 80% 30.17 in 10.0 mi WSW 3.5 mph - N/A   Clear
9:55 PM 32.0 °F 27.5 °F 24.8 °F 75% 30.18 in 10.0 mi WSW 4.6 mph - N/A   Clear
10:15 PM 30.2 °F 24.3 °F 24.8 °F 80% 30.18 in 10.0 mi WSW 5.8 mph - N/A   Clear
10:35 PM 28.4 °F 23.3 °F 24.8 °F 86% 30.18 in 10.0 mi SW 4.6 mph - N/A   Clear
10:55 PM 28.4 °F 23.3 °F 24.8 °F 86% 30.18 in 10.0 mi SW 4.6 mph - N/A   Clear
11:15 PM 28.4 °F 22.2 °F 23.0 °F 80% 30.18 in 10.0 mi WSW 5.8 mph - N/A   Clear
11:35 PM 28.4 °F 22.2 °F 23.0 °F 80% 30.17 in 10.0 mi WSW 5.8 mph - N/A   Clear
11:55 PM 28.4 °F 24.6 °F 21.2 °F 74% 30.17 in 10.0 mi SSW 3.5 mph - N/A   Clear